* Astronomy

Members Login
Username 
 
Password 
    Remember Me  
Post Info TOPIC: Chang Zheng-4B rocket body re-entry


L

Posts: 131433
Date:
RE: Chang Zheng-4B rocket body re-entry
Permalink  
 


Update:
The Chang Zheng-4B rocket body is predicted to re-enter the Earths atmosphere on the 6th March, 2012 @ -- GMT  ± -- hours.

CZ-4B RB
1 38048U 12001C   12059.95864238 +.00942707 +24050-5 +65098-3 0 01076
2 38048 097.5630 140.6376 0092976 177.4560 182.7302 16.07253767008055

Period:       89.66 minutes
Inclination: 97.56°
Apogee:     322 km
Perigee:     193 km 
Revolution Number: -
Predicted Location:  -



__________________


L

Posts: 131433
Date:
Permalink  
 

A Chang Zheng-4B rocket body that was launched on the 9th January, 2012, from the Taiyuan Satellite Launch Centre, for the Ziyuan III satellite mission is predicted to re-enter the Earths atmosphere on the 29th February, 2012 @ -- GMT  ± -- hours.

CZ-4B RB
1 38048U 12001C   12052.96078835 +.00620650 +24007-5 +64584-3 0 00845
2 38048 097.5701 132.7114 0121797 201.8386 157.7683 15.96993343006935

Period:       90.14 minutes
Inclination: 97.57°
Apogee:     362 km
Perigee:     201 km 
Revolution Number: -
Predicted Location:  -



__________________
Page 1 of 1  sorted by
 
Quick Reply

Please log in to post quick replies.



Create your own FREE Forum
Report Abuse
Powered by ActiveBoard